Starlink 33614

operational
NORAD ID: 63372 Int'l Des: 2025-063 Owner: SPXS Country: US Constellation: starlink
LEOCIRCULAR

About Starlink 33614

Description loading...

Live Position

Loading 3D Globe...

Upcoming Passes

Altitude History

Altitude vs Time

uPlot chart will show altitude changes over time

Two-Line Element Set

1 63372U 25063K 25305.29896270 .00044781 00000-0 11224-2 0 9991
2 63372 53.1595 286.5983 0001265 96.4379 263.6770 15.39635610 35136
Epoch: Nov 1, 2025 • Age: 16 hours

Current Status

Altitude 448.6 km
Velocity 7.65 km/s
Sub-Earth Point 32.06°N, 74.15°W
Launch Date Mar 26, 2025
Age 0.6 years
Type internet

Technical Details

Classification Payload
Mass 575.00 kg
Dry Mass 530.00 kg
Total Mass 575.00 kg
Length 0.30 m
Diameter 4.10 m
Span 29.00 m
Shape Box + pan
Manufacturer SPXS
Bus Type Starlink V2MO
Phase Status In Orbit
Owner/State SPXS/US

Large Constellations

Loading constellations...